Weather observations for the past three days for
Milwaukee, General Mitchell International Airport
Imperial (Metric)
Date Time (cdt) Wind (mph) Vis. (mi.) Weather Sky Cond. Temperature (ºF) Relative Humidity Wind Chill (°F) Heat Index (°F) Pressure Precipitation (in)
Air Dwpt 6 hour altimeter (in) sea level (mb) 1 hr 3 hr 6 hr
Max. Min.
14 21:52 W 3 7.00 Thunderstorm Light Rain SCT060CB SCT100 OVC250 81 75 82% 87 29.84 1010.0 0.01 0.01
14 20:52 S 7 10.00 Overcast BKN055 OVC190 82 73.9 77% 88 29.81 1008.9
14 19:52 SW 8 10.00 Mostly Cloudy FEW057 SCT120 BKN250 82.9 73 72% 89 29.84 1009.9
14 18:52 SW 10 10.00 Mostly Cloudy FEW048 BKN055 BKN250 84 73 88 80.1 70% 90 29.86 1010.7
14 17:52 SW 9 10.00 Mostly Cloudy SCT045 BKN050 BKN250 86 71.1 61% 92 29.87 1010.9
14 16:52 SE 12 10.00 Mostly Cloudy BKN034 BKN250 81 71.1 72% 85 29.87 1010.9
14 15:52 SE 12 10.00 Partly Cloudy FEW038 SCT250 82.9 71.1 67% 88 29.86 1010.7
14 14:52 Vrbl 6 10.00 Partly Cloudy SCT250 88 71.1 57% 94 29.89 1011.7
14 13:52 W 9 10.00 Partly Cloudy SCT250 86 69.1 57% 90 29.88 1011.2
14 12:52 W 15 G 24 10.00 Mostly Cloudy BKN250 82.9 66.9 82.9 69.1 59% 86 29.88 1011.2 0.07
14 11:52 SW 18 G 29 10.00 Mostly Cloudy BKN250 80.1 68 67% 83 29.89 1011.6
14 10:52 SW 13 10.00 Mostly Cloudy FEW200 BKN250 77 69.1 77% 79 29.89 1011.6
14 09:52 SW 8 10.00 Mostly Cloudy SCT200 BKN250 70 66.9 90% 29.89 1011.9 0.07
14 08:52 S 10 10.00 Overcast FEW050 SCT100 OVC170 70 66.9 90% 29.92 1012.6 0.05
14 07:52 W 8 9.00 Thunderstorm Light Rain FEW025CB SCT070 OVC100 71.1 66.9 87% 29.99 1015.1 0.02
14 06:52 S 5 10.00 Overcast SCT029 BKN090 OVC250 71.1 66.9 71.1 68 87% 29.98 1014.8 0.03
14 05:52 NW 3 10.00 Overcast FEW200 OVC250 68 64.9 90% 29.97 1014.3
14 04:52 W 7 10.00 Overcast OVC190 70 66 87% 29.95 1013.6
14 03:52 W 10 G 21 10.00 Overcast SCT100 OVC130 70 64.9 84% 29.92 1012.7 0.03
14 02:52 SW 15 10.00 Light Rain FEW036 SCT075 BKN110 OVC130 70 66 87% 29.91 1012.5 0.03
14 01:52 S 10 10.00 Light Rain FEW014 BKN110 OVC130 70 66 87% 29.97 1014.4
14 00:52 S 12 10.00 Overcast BKN130 BKN160 OVC250 71.1 66.9 81 70 87% 29.96 1014.0 0.02 0.32
13 23:52 SE 3 8.00 Rain BKN100 OVC130 70 66.9 90% 30.01 1015.6 0.1
13 22:52 Calm 7.00 Thunderstorm Light Rain FEW075CB OVC110 71.1 66.9 87% 30.03 1016.6 0.09
13 20:52 SW 10 10.00 Overcast OVC230 81 64.9 58% 83 30.01 1015.6
13 19:52 S 9 10.00 Mostly Cloudy FEW150 SCT210 BKN250 80.1 70 71% 83 29.99 1015.0
13 18:52 SE 9 10.00 Partly Cloudy FEW050 SCT095 SCT250 81 71.1 84.9 79 72% 85 30.02 1015.9 0.05
13 17:52 SE 13 10.00 Mostly Cloudy FEW050 BKN250 81 71.1 72% 85 30.03 1016.5
13 16:52 SE 17 10.00 Mostly Cloudy FEW065 BKN250 81 71.1 72% 85 30.04 1016.8
13 15:52 SE 15 10.00 Mostly Cloudy FEW022 FEW065 FEW095 BKN250 81 73.9 79% 86 30.07 1017.7 0.05 0.05
13 14:52 SE 16 10.00 Mostly Cloudy FEW044 BKN055 BKN200 82 70 67% 86 30.09 1018.4
13 13:52 SE 12 10.00 Mostly Cloudy SCT042 BKN055 BKN200 82 70 67% 86 30.1 1018.7
13 12:52 E 9 10.00 Mostly Cloudy FEW040 SCT060 BKN090 BKN200 82.9 71.1 84 68 67% 88 30.12 1019.4
13 11:52 E 9 10.00 Mostly Cloudy BKN041 BKN085 BKN200 82 70 67% 86 30.13 1019.8
13 09:52 S 8 10.00 A Few Clouds FEW037 FEW085 81 66 61% 83 30.14 1020.2
13 08:52 S 7 10.00 A Few Clouds FEW070 78.1 66 67% 80 30.15 1020.6
13 07:52 SW 5 10.00 A Few Clouds FEW080 73 64.9 76% 30.15 1020.6
13 06:52 Calm 10.00 A Few Clouds FEW080 FEW200 68 63 69.1 61 84% 30.15 1020.5
13 05:52 Calm 10.00 A Few Clouds FEW200 63 59 87% 30.14 1020.3
13 04:52 Calm 10.00 Fair CLR 63 59 87% 30.14 1020.3
13 03:52 SE 5 10.00 Fair CLR 64 60.1 87% 30.13 1019.9
13 02:52 Calm 10.00 Fair CLR 64.9 60.1 84% 30.12 1019.7
13 01:52 S 5 10.00 Fair CLR 69.1 61 76% 30.13 1019.7
13 00:52 S 6 10.00 Fair CLR 68 61 79 66.9 78% 30.14 1020.1
12 23:52 S 3 10.00 Fair CLR 68 61 78% 30.13 1019.9
12 22:52 Calm 10.00 Fair CLR 70 62.1 76% 30.12 1019.4
12 21:52 Calm 10.00 Fair CLR 72 60.1 66% 30.12 1019.3
12 20:52 S 3 10.00 Fair CLR 75.9 59 56% 78 30.12 1019.4
12 19:52 S 3 10.00 Fair CLR 78.1 57.9 50% 79 30.12 1019.3
12 18:52 SE 5 10.00 Fair CLR 79 57 82 79 47% 80 30.1 1018.9
12 17:52 SE 8 10.00 A Few Clouds FEW050 80.1 57.9 47% 81 30.1 1018.8
12 16:52 SE 7 10.00 A Few Clouds FEW055 81 60.1 49% 82 30.1 1018.8
12 15:52 E 10 10.00 A Few Clouds FEW050 80.1 57 45% 80 30.1 1018.9
12 14:52 SE 7 10.00 A Few Clouds FEW048 80.1 61 52% 81 30.12 1019.5
12 13:52 E 7 10.00 A Few Clouds FEW048 81 57.9 45% 81 30.12 1019.6
12 12:52 E 7 10.00 A Few Clouds FEW044 81 60.1 81 68 49% 82 30.13 1020.0
12 11:52 E 7 10.00 A Few Clouds FEW042 80.1 62.1 54% 81 30.14 1020.1
12 10:52 E 7 10.00 Fair CLR 79 60.1 52% 80 30.14 1020.1
12 09:52 Calm 10.00 Fair CLR 79 60.1 52% 80 30.14 1020.2
12 08:52 Calm 10.00 Fair CLR 75.9 60.1 58% 78 30.14 1020.2
12 07:52 Calm 10.00 Fair CLR 73 63 71% 30.13 1019.8
12 06:52 Calm 10.00 Fair CLR 68 62.1 68 63 81% 30.11 1019.2
12 05:52 Calm 10.00 A Few Clouds FEW250 64 60.1 87% 30.1 1019.0
12 04:52 Calm 10.00 A Few Clouds FEW250 63 60.1 90% 30.09 1018.8
12 03:52 NW 3 10.00 A Few Clouds FEW070 64 61 90% 30.08 1018.4
12 02:52 Calm 10.00 Fair CLR 64.9 62.1 90% 30.08 1018.3
12 01:52 NW 3 10.00 Fair CLR 66 62.1 87% 30.09 1018.7
12 00:52 Calm 10.00 Fair CLR 64 62.1 73 64 93% 30.1 1018.8
11 23:52 Calm 10.00 Fair CLR 66.9 64 91% 30.1 1018.9
11 22:52 Calm 10.00 Fair CLR 68 64 87% 30.1 1018.9
Date Time (cdt) Wind (mph) Vis. (mi.) Weather Sky Cond. Air Dwpt Max. Min. Relative Humidity Wind Chill (°F) Heat Index (°F) altimeter (in) sea level (mb) 1 hr 3 hr 6 hr
6 hour
Temperature (ºF) Pressure Precipitation (in)